Location: Newark
(12.4436°N, 0.6167°W)
Time: 23:19:28
(UTC+00:00)

deb Explorer IX - Pass Details

Date: 10 December 2019
Orbit: 548 x 1101 km, 38.8° (Epoch: 18 January)

Event Time Altitude Azimuth Distance (km) Brightness Sun altitude
Rises 23:49:48 0° 308° (NW) 3,906 - -79.5°
Reaches altitude 10° 23:52:36 10° 307° (NW) 2,946 - -79.6°
Maximum altitude 23:59:55 83° 221° (SW) 1,067 - -79.5°
Drops below altitude 10° 00:06:40 10° 133° (SE) 2,729 - -79.2°
Sets 00:09:10 0° 132° (SE) 3,604 - -79.0°
